DW9151 Weather Reports


Display with metric or nautical units.
time (UTC)temp
F
wind
direction
speed
MPH
gust
MPH
rain 1hr
in
rain 24hr
in
rain mn
in
humidity
%
barometer
mb
20260503053621 52 21 1.0 3.0 0.00 0.00 0.00 33 1020.3
20260503053121 51 19 2.0 3.0 0.00 0.00 0.00 32 1020.3
20260503052621 51 22 2.0 5.0 0.00 0.00 0.00 33 1020.3
20260503052121 51 22 1.0 3.0 0.00 0.00 0.00 33 1020.3
20260503051622 50 16 2.0 3.0 0.00 0.00 0.00 33 1020.3
20260503051121 50 17 3.0 5.0 0.00 0.00 0.00 34 1020.4
20260503050621 50 19 2.0 3.0 0.00 0.00 0.00 34 1020.4
20260503050121 49 20 2.0 5.0 0.00 0.00 0.00 35 1020.4
20260503045621 48 17 2.0 5.0 0.00 0.00 0.00 36 1020.5
20260503045122 48 17 2.0 3.0 0.00 0.00 0.00 36 1020.6
20260503044121 47 17 1.0 3.0 0.00 0.00 0.00 38 1020.6
20260503043621 47 17 2.0 3.0 0.00 0.00 0.00 39 1020.6
20260503043121 46 13 2.0 5.0 0.00 0.00 0.00 39 1020.7
20260503042621 46 18 2.0 3.0 0.00 0.00 0.00 40 1020.7
20260503042121 45 20 2.0 3.0 0.00 0.00 0.00 40 1020.7
20260503041621 45 20 2.0 5.0 0.00 0.00 0.00 40 1020.7
20260503041121 45 18 2.0 3.0 0.00 0.00 0.00 39 1020.6
20260503040622 45 20 2.0 5.0 0.00 0.00 0.00 39 1020.6
20260503040121 45 17 2.0 6.0 0.00 0.00 0.00 39 1020.6
20260503035621 45 17 2.0 5.0 0.00 0.00 0.00 38 1020.7
20260503035121 45 19 2.0 5.0 0.00 0.00 0.00 37 1020.7
20260503034621 45 18 3.0 5.0 0.00 0.00 0.00 35 1020.7
20260503034122 45 17 2.0 3.0 0.00 0.00 0.00 34 1020.7
20260503033621 45 19 1.0 3.0 0.00 0.00 0.00 34 1020.7
20260503033121 45 17 2.0 3.0 0.00 0.00 0.00 32 1020.7
20260503032621 45 19 2.0 3.0 0.00 0.00 0.00 32 1020.8
20260503030621 45 20 1.0 3.0 0.00 0.00 0.00 34 1020.9
20260503030121 45 19 2.0 5.0 0.00 0.00 0.00 34 1021.0
20260503025621 45 19 2.0 5.0 0.00 0.00 0.00 34 1021.0
20260503025121 45 19 2.0 6.0 0.00 0.00 0.00 34 1021.0
20260503024621 45 15 2.0 5.0 0.00 0.00 0.00 34 1021.1
20260503024121 45 17 2.0 3.0 0.00 0.00 0.00 32 1021.2
20260503023621 45 18 1.0 3.0 0.00 0.00 0.00 31 1021.1
20260503023122 45 20 2.0 3.0 0.00 0.00 0.00 32 1021.3
20260503022122 45 17 2.0 3.0 0.00 0.00 0.00 34 1021.4
20260503021621 45 16 2.0 3.0 0.00 0.00 0.00 32 1021.5
20260503021122 45 18 2.0 3.0 0.00 0.00 0.00 31 1021.6
20260503020621 45 20 1.0 3.0 0.00 0.00 0.00 32 1021.7
20260503020121 45 21 2.0 5.0 0.00 0.00 0.00 35 1021.7
20260503015621 45 17 2.0 3.0 0.00 0.00 0.00 36 1021.6
20260503015121 45 20 3.0 6.0 0.00 0.00 0.00 34 1021.7
20260503014621 45 18 1.0 6.0 0.00 0.00 0.00 34 1021.7
20260503014121 45 19 3.0 5.0 0.00 0.00 0.00 35 1021.7
20260503013621 45 22 1.0 3.0 0.00 0.00 0.00 36 1021.7
20260503013121 45 18 2.0 3.0 0.00 0.00 0.00 37 1021.7
20260503012621 45 17 2.0 5.0 0.00 0.00 0.00 36 1021.7
20260503012121 45 18 2.0 3.0 0.00 0.00 0.00 35 1021.8
20260503011621 45 16 2.0 5.0 0.00 0.00 0.00 36 1021.9
20260503011121 45 20 2.0 3.0 0.00 0.00 0.00 34 1021.9
20260503010621 45 19 1.0 3.0 0.00 0.00 0.00 34 1022.0
20260503005621 46 16 1.0 3.0 0.00 0.00 0.00 31 1022.1
20260503004622 46 16 1.0 3.0 0.00 0.00 0.00 28 1022.1
20260503004121 46 17 1.0 3.0 0.00 0.00 0.00 26 1022.2
20260503003621 47 18 1.0 2.0 0.00 0.00 0.00 26 1022.3
20260503003121 47 17 1.0 3.0 0.00 0.00 0.00 26 1022.4
20260503002621 47 18 2.0 5.0 0.00 0.00 0.00 26 1022.4
20260503001620 47 13 3.0 7.0 0.00 0.00 0.00 26 1022.5
20260503001121 47 19 5.0 7.0 0.00 0.00 0.00 26 1022.5
20260503000621 47 16 3.0 5.0 0.00 0.00 0.00 26 1022.6
20260503000121 47 16 2.0 3.0 0.00 0.00 0.00 27 1022.7
20260502235623 47 17 2.0 3.0 0.00 0.00 0.00 26 1022.7
20260502235121 47 5 2.0 3.0 0.00 0.00 0.00 26 1022.8
20260502234121 47 19 2.0 3.0 0.00 0.00 0.00 28 1022.9
20260502233621 47 0 2.0 3.0 0.00 0.00 0.00 28 1022.9
20260502233121 47 8 2.0 6.0 0.00 0.00 0.00 26 1023.0
20260502232121 48 17 6.0 8.0 0.00 0.00 0.00 26 1023.0
20260502231620 48 18 5.0 8.0 0.00 0.00 0.00 27 1023.0
20260502230621 47 20 2.0 5.0 0.00 0.00 0.00 26 1023.1
20260502230121 47 16 2.0 3.0 0.00 0.00 0.00 25 1023.2
20260502225621 47 17 3.0 8.0 0.00 0.00 0.00 26 1023.3
20260502225120 47 17 2.0 6.0 0.00 0.00 0.00 26 1023.3
20260502224621 47 17 3.0 6.0 0.00 0.00 0.00 27 1023.3
20260502223621 47 17 3.0 5.0 0.00 0.00 0.00 27 1023.3
20260502222621 47 19 2.0 3.0 0.00 0.00 0.00 29 1023.5
20260502222120 47 14 2.0 3.0 0.00 0.00 0.00 28 1023.5
20260502221621 47 13 2.0 3.0 0.00 0.00 0.00 30 1023.5
20260502220620 47 23 2.0 3.0 0.00 0.00 0.00 32 1023.5
20260502220121 47 20 2.0 3.0 0.00 0.00 0.00 32 1023.6
20260502215620 47 20 2.0 3.0 0.00 0.00 0.00 31 1023.6
20260502215121 47 4 2.0 3.0 0.00 0.00 0.00 32 1023.5
20260502214621 47 18 2.0 3.0 0.00 0.00 0.00 34 1023.5
20260502214121 47 17 2.0 3.0 0.00 0.00 0.00 34 1023.5
20260502213621 47 6 2.0 3.0 0.00 0.00 0.00 34 1023.6
20260502213121 47 17 2.0 3.0 0.00 0.00 0.00 33 1023.6
20260502212621 47 20 2.0 3.0 0.00 0.00 0.00 34 1023.6
20260502212120 47 16 2.0 3.0 0.00 0.00 0.00 34 1023.7
20260502211120 47 15 2.0 3.0 0.00 0.00 0.00 35 1023.8
20260502210621 47 14 2.0 3.0 0.00 0.00 0.00 33 1023.8
20260502210122 47 19 3.0 6.0 0.00 0.00 0.00 30 1023.9
20260502205621 47 18 2.0 5.0 0.00 0.00 0.00 34 1023.8
20260502205120 47 19 2.0 3.0 0.00 0.00 0.00 36 1023.9
20260502204621 47 17 3.0 5.0 0.00 0.00 0.00 30 1023.9
20260502204121 47 17 2.0 5.0 0.00 0.00 0.00 30 1023.9
20260502203120 47 13 2.0 3.0 0.00 0.00 0.00 30 1023.9
20260502202620 47 17 2.0 3.0 0.00 0.00 0.00 33 1024.0
20260502202121 47 19 2.0 3.0 0.00 0.00 0.00 31 1023.9
20260502201120 47 17 2.0 3.0 0.00 0.00 0.00 34 1024.0
20260502200621 47 19 2.0 3.0 0.00 0.00 0.00 30 1024.0
20260502200121 47 19 2.0 3.0 0.00 0.00 0.00 31 1024.0
20260502195621 47 19 2.0 3.0 0.00 0.00 0.00 31 1024.0
20260502194620 47 18 2.0 5.0 0.00 0.00 0.00 34 1023.8
20260502193621 47 14 2.0 3.0 0.00 0.00 0.00 56 1023.8
20260502193121 47 17 3.0 6.0 0.00 0.00 0.00 47 1023.8
20260502192120 47 18 2.0 5.0 0.00 0.00 0.00 53 1023.6
20260502191621 47 16 1.0 3.0 0.00 0.00 0.00 62 1023.6
20260502191121 47 19 2.0 5.0 0.00 0.00 0.00 59 1023.6
20260502190620 47 18 3.0 3.0 0.00 0.00 0.00 58 1023.5
20260502190121 47 19 3.0 3.0 0.00 0.00 0.00 60 1023.5
20260502185620 47 18 5.0 7.0 0.00 0.00 0.00 62 1023.5
20260502185120 47 19 2.0 3.0 0.00 0.00 0.00 62 1023.5
20260502183620 47 19 3.0 5.0 0.00 0.00 0.00 62 1023.3
20260502183120 47 16 3.0 5.0 0.00 0.00 0.00 61 1023.3
20260502182620 48 17 2.0 3.0 0.00 0.00 0.00 62 1023.3
20260502182120 48 16 3.0 6.0 0.00 0.00 0.00 61 1023.2
20260502181121 48 19 2.0 3.0 0.00 0.00 0.00 62 1023.3
20260502180620 48 20 3.0 3.0 0.00 0.00 0.00 62 1023.3
20260502180120 48 20 1.0 3.0 0.00 0.00 0.00 62 1023.2
20260502164120 47 8 3.0 6.0 0.00 0.00 0.00 67 1023.3
20260502163120 47 10 3.0 8.0 0.00 0.00 0.00 67 1023.4
20260502161620 48 9 3.0 7.0 0.00 0.00 0.00 65 1023.7
20260502160620 48 6 2.0 5.0 0.00 0.00 0.00 66 1024.0
20260502160120 48 14 3.0 5.0 0.00 0.00 0.00 66 1024.0
20260502152120 49 14 5.0 7.0 0.00 0.00 0.00 65 1024.3
20260502151620 49 19 3.0 6.0 0.00 0.00 0.00 65 1024.4
20260502151120 49 20 3.0 6.0 0.00 0.00 0.00 65 1024.4
20260502150621 49 18 4.0 7.0 0.00 0.00 0.00 65 1024.4
20260502150120 49 18 3.0 6.0 0.00 0.00 0.00 64 1024.6
20260502140120 51 15 1.0 5.0 0.00 0.00 0.00 62 1025.0
20260502130620 49 18 6.0 12.0 0.00 0.00 0.00 63 1025.4
20260502130120 50 17 3.0 7.0 0.00 0.00 0.00 64 1025.4
20260502123120 50 17 5.0 8.0 0.00 0.00 0.00 62 1025.6
20260502122620 50 15 5.0 12.0 0.00 0.00 0.00 62 1025.6
20260502122120 51 16 3.0 6.0 0.00 0.00 0.00 62 1025.7
20260502121620 51 16 3.0 6.0 0.00 0.00 0.00 64 1025.7
20260502121120 50 13 3.0 12.0 0.00 0.00 0.00 65 1025.7
20260502120620 49 16 5.0 8.0 0.00 0.00 0.00 67 1025.7
20260502120120 49 14 5.0 9.0 0.00 0.00 0.00 64 1025.7
20260502115620 50 15 6.0 9.0 0.00 0.00 0.00 62 1025.8
20260502115120 49 15 4.0 10.0 0.00 0.00 0.00 63 1025.9
20260502114620 51 15 5.0 8.0 0.00 0.00 0.00 61 1026.0
20260502114120 52 16 3.0 6.0 0.00 0.00 0.00 58 1026.1
20260502113620 52 16 4.0 7.0 0.00 0.00 0.00 58 1026.1
20260502113120 53 16 3.0 6.0 0.00 0.00 0.00 60 1026.2
20260502112620 53 14 2.0 5.0 0.00 0.00 0.00 59 1026.2
20260502112120 52 18 2.0 3.0 0.00 0.00 0.00 58 1026.3
20260502111620 51 14 2.0 5.0 0.00 0.00 0.00 63 1026.4
20260502111120 51 14 2.0 5.0 0.00 0.00 0.00 60 1026.4
20260502110619 51 13 3.0 7.0 0.00 0.00 0.00 59 1026.5
20260502110120 52 15 3.0 5.0 0.00 0.00 0.00 58 1026.5
20260502105120 51 19 2.0 3.0 0.00 0.00 0.00 59 1026.6
20260502104619 51 11 3.0 5.0 0.00 0.00 0.00 61 1026.6
20260502104120 51 12 2.0 7.0 0.00 0.00 0.00 59 1026.8
20260502103620 51 15 2.0 3.0 0.00 0.00 0.00 59 1026.8
20260502103120 52 13 3.0 5.0 0.00 0.00 0.00 58 1026.8
20260502102620 51 13 1.0 5.0 0.00 0.00 0.00 59 1026.8
20260502102120 51 17 2.0 5.0 0.00 0.00 0.00 57 1026.9
20260502101620 51 15 3.0 5.0 0.00 0.00 0.00 59 1026.9
20260502101120 51 18 2.0 3.0 0.00 0.00 0.00 56 1026.8
20260502100620 52 22 2.0 3.0 0.00 0.00 0.00 58 1026.9
20260502100120 51 13 2.0 7.0 0.00 0.00 0.00 59 1027.0
20260502091120 50 4 2.0 3.0 0.00 0.00 0.00 55 1026.9
20260502090619 49 23 5.0 8.0 0.00 0.00 0.00 57 1027.0
20260502090120 50 25 2.0 3.0 0.00 0.00 0.00 57 1027.0
20260502071120 49 21 1.0 3.0 0.00 0.00 0.00 54 1027.6
20260502070620 48 18 2.0 5.0 0.00 0.00 0.00 55 1027.5
20260502070120 48 16 2.0 3.0 0.00 0.00 0.00 55 1027.6
20260502065120 48 21 1.0 3.0 0.00 0.00 0.00 56 1027.6
20260502064619 47 23 1.0 3.0 0.00 0.00 0.00 56 1027.6
20260502064122 47 19 2.0 5.0 0.00 0.00 0.00 56 1027.7
20260502063620 47 16 2.0 3.0 0.00 0.00 0.00 56 1027.6
20260502063119 46 13 2.0 5.0 0.00 0.00 0.00 56 1027.6
20260502062619 46 16 2.0 5.0 0.00 0.00 0.00 56 1027.7
20260502062120 46 15 2.0 3.0 0.00 0.00 0.00 57 1027.6
20260502061620 45 15 2.0 3.0 0.00 0.00 0.00 58 1027.6
20260502060620 45 15 3.0 5.0 0.00 0.00 0.00 58 1027.6
20260502060120 45 9 2.0 5.0 0.00 0.00 0.00 58 1027.7
20260502055619 45 8 1.0 3.0 0.00 0.00 0.00 58 1027.7
20260502055119 44 19 1.0 3.0 0.00 0.00 0.00 59 1027.8
20260502054619 43 11 2.0 5.0 0.00 0.00 0.00 61 1027.7
20260502054119 43 3 2.0 5.0 0.00 0.00 0.00 61 1027.7